Regional Weather Roundup
Issued by NWS

Home | Current Version | Previous Version | Text Only | Print | Product List | Glossary Off
Versions: 1 2 3 4 5 6 7 8 9 10 11 12 13 14 15 16 17 18 19 20 21 22 23 24 25 26 27 28

000
ASUS45 KBOU 291207
RWRCO

WEATHER ROUNDUP FOR COLORADO
NATIONAL WEATHER SERVICE DENVER/BOULDER CO
600 AM MDT SUN MAY 29 2016

NOTE: "FAIR" INDICATES FEW OR NO CLOUDS BELOW 12000 FEET WITH NO
SIGNIFICANT WEATHER AND/OR OBSTRUCTIONS TO VISIBILITY.

COZ001>005-013-030-031-291300-
...NORTHWEST COLORADO...

CITY           SKY/WX    TMP DP  RH WIND       PRES   REMARKS
CRAIG          FAIR      34  31  88 CALM      30.22R
HAYDEN         FAIR      39  32  75 E10       30.22S
MEEKER         FAIR      36  32  85 NE3       30.22R
MOUNT WERNER   NOT AVBL
STEAMBOAT SPGS FAIR      36  33  87 CALM      30.24S
WALDEN         NOT AVBL
$$

COZ006>008-011-291300-
...WEST CENTRAL VALLEYS...

CITY           SKY/WX    TMP DP  RH WIND       PRES   REMARKS
GRAND JUNCTION FAIR      50  36  58 SE9       30.13R
MONTROSE       MOCLDY    44  33  65 SE6       30.21R
EAGLE          FAIR      36  34  93 E5        30.31R
RIFLE          FAIR      40  33  76 CALM      30.20R
DELTA          FAIR      49  35  58 N10       30.17S
NUCLA          FAIR      46  32  57 CALM      30.21R
$$

COZ017>023-064>068-291300-
...SOUTHWEST COLORADO...

CITY           SKY/WX    TMP DP  RH WIND       PRES   REMARKS
DURANGO        FAIR      43  29  57 NW3       30.20R
CORTEZ         FAIR      36  30  79 E3        30.15R
PAGOSA SPRINGS FAIR      45  29  54 E9        30.27S
TELLURIDE      FAIR      43  26  52 SE10      30.34S
WOLF CREEK PAS CLOUDY    36  21  55 SW17G23   30.52R
$$

COZ009-010-012-014-032>034-037-058>063-291300-
...CENTRAL COLORADO...

CITY           SKY/WX    TMP DP  RH WIND       PRES   REMARKS
ASPEN          FAIR      33  28  81 CALM      30.28R
BUENA VISTA    FAIR      37  28  69 N3        30.33R
COPPER MTN     NOT AVBL
BERTHOUD PASS  FAIR      30  19  64 W7        30.48R WCI  23
COTTONWOOD PAS FAIR      45  25  45 W6        30.39R
GUNNISON       FAIR      34  28  80 CALM      30.34S
KREMMLING      FAIR      32  30  93 CALM      30.32S
LEADVILLE      FAIR      25  21  85 CALM      30.38R
SALIDA         FAIR      39  31  72 W5        30.40R
SUNLIGHT       FAIR      39  28  65 CALM      30.44R
WILKERSON PASS FAIR      34  27  75 SW5       30.47S WCI  30
$$

COZ069>075-291300-
...SAN LUIS VALLEY/SANGRE DE CRISTO MOUNTAINS...

CITY           SKY/WX    TMP DP  RH WIND       PRES   REMARKS
ALAMOSA        FAIR      38  35  89 N5        30.28R
LA VETA PASS   FAIR      45  25  45 E5        30.41R
SAGUACHE       MOCLDY    45  32  61 NW10      30.31R
$$

COZ035-036-038>040-291300-
...NORTHERN COLORADO FRONT RANGE...

CITY           SKY/WX    TMP DP  RH WIND       PRES   REMARKS
DENVER INTL AP FAIR      48  39  71 SW10      30.16S
DMNS CITY PARK   N/A     50  38  62 SE9       30.17S
AURORA         PTCLDY    47  39  72 S7        30.18R
FRONT RANGE AP NOT AVBL
ERIE MUNI ARPT FAIR      40  38  89 CALM      30.16R
BOULDER MUN AP FAIR      46  39  76 CALM      30.15R
CENTENNIAL     FAIR      45  36  70 S8        30.18R
BROOMFIELD     FAIR      48  37  66 W3        30.18R
FORT COLLINS   FAIR      45  39  81 SE5       30.16R
LONGMONT       FAIR      43  37  80 CALM      30.17R
$$

COZ041-046-047-076>085-087-088-291300-
...PIKES PEAK/PALMER DIVIDE AND SOUTHERN FOOTHILLS...

CITY           SKY/WX    TMP DP  RH WIND       PRES   REMARKS
COLO. SPRINGS  MOCLDY    47  38  71 NW3       30.25R
A. F. ACADEMY  FAIR      37  36  93 N9        30.24R
SCHRIEVER AFB  NOT AVBL
ELLICOTT       FAIR     N/A N/A N/A S3        30.22R
FALCON         FAIR      44  37  77 CALM      30.27R
FORT CARSON    FAIR      44  39  82 NW6       30.21R
LIMON          FAIR      40  39  97 CALM      30.19R
MONUMENT HILL  FAIR      43  36  75 S6        30.26R
TRINIDAD       FAIR      46  37  71 SW8       30.20R
$$

COZ042>045-048>051-090-091-291300-
...NORTHEAST COLORADO...

CITY           SKY/WX    TMP DP  RH WIND       PRES   REMARKS
GREELEY ARPT   FAIR      43  41  93 CALM      30.16R
AKRON          FAIR      47  42  83 E5        30.16R
BURLINGTON     FAIR      52  45  77 S12       30.14R
WRAY           FAIR      50  46  87 W6        30.12R
STERLING       FAIR      45  43  93 SW5       30.11S
HOLYOKE        NOT AVBL
FORT MORGAN    FAIR      44  42  93 SW5       30.14R
$$

COZ086-089-092>099-291300-
...SOUTHEAST COLORADO...

CITY           SKY/WX    TMP DP  RH WIND       PRES   REMARKS
PUEBLO         FAIR      51  45  79 NW3       30.17R
LA JUNTA       FAIR      52  48  86 W5        30.14R
LAMAR          FAIR      53  48  83 SE8       30.11S
SPRINGFIELD      N/A     51  47  86 SW8       30.16R
$$




USA.gov is the U.S. government's official web portal to all federal, state and local government web resources and services.